QPF
0.41 0.18 0.33 0.37 0.29 0.19 0.21 0.24 0.34 0.19 0.10 0.17 0.04 0.00 0.00 0.02 0.00 0.04 0.01 0.00 0.03 0.00 0.01 0.01 0.00 0.00 0.00 0.00 0.00 0.00 0.01 0.01 0.01 0.00 0.00 0.03 0.01 0.01 0.03 0.00 0.00 0.00
0.20 0.15 0.15 0.18 0.19 0.24 0.23 0.34 0.29 0.27 0.21 0.16 0.06 0.07 0.02 0.01 0.00 0.01 0.02 0.18 0.12 0.11 0.15 0.10 0.09 0.05 0.04 0.07 0.03 0.01 0.00 0.00 0.00 0.00 0.00 0.01 0.02 0.02 0.00 0.00 0.00 0.00
0.14 0.05 0.12 0.10 0.09 0.17 0.25 0.24 0.21 0.26 0.28 0.12 0.12 0.05 0.03 0.20 0.18 0.22 0.32 0.23 0.28 0.18 0.19 0.16 0.19 0.15 0.11 0.07 0.06 0.04 0.02 0.01 0.01 0.00 0.00 0.00 0.00 0.00 0.00 0.00 0.00 0.00
0.03 0.04 0.07 0.05 0.07 0.16 0.17 0.36 0.25 0.19 0.18 0.23 0.09 0.15 0.27 0.16 0.29 0.27 0.15 0.19 0.17 0.25 0.17 0.15 0.12 0.08 0.04 0.01 0.01 0.08 0.06 0.05 0.10 0.09 0.15 0.03 0.01 0.01 0.00 0.01 0.00 0.01
0.01 0.01 0.01 0.01 0.02 0.14 0.17 0.23 0.25 0.42 0.23 0.20 0.22 0.17 0.16 0.14 0.06 0.26 0.27 0.16 0.14 0.03 0.04 0.03 0.04 0.08 0.06 0.06 0.10 0.05 0.03 0.02 0.16 0.22 0.13 0.04 0.11 0.20 0.09 0.03 0.03 0.01
0.01 0.01 0.01 0.01 0.01 0.05 0.07 0.12 0.13 0.28 0.29 0.31 0.25 0.14 0.07 0.12 0.16 0.31 0.17 0.01 0.01 0.01 0.03 0.01 0.02 0.06 0.12 0.05 0.08 0.04 0.05 0.03 0.05 0.18 0.33 0.07 0.08 0.12 0.14 0.34 0.22 0.26
0.00 0.01 0.02 0.02 0.05 0.08 0.06 0.07 0.07 0.11 0.12 0.23 0.24 0.20 0.14 0.22 0.34 0.43 0.21 0.15 0.04 0.03 0.01 0.00 0.00 0.01 0.05 0.03 0.02 0.04 0.03 0.03 0.02 0.04 0.12 0.17 0.12 0.16 0.24 0.17 0.13 0.21
0.00 0.00 0.00 0.01 0.03 0.16 0.21 0.11 0.12 0.16 0.18 0.27 0.16 0.18 0.07 0.24 0.21 0.30 0.34 0.11 0.11 0.05 0.03 0.02 0.00 0.01 0.01 0.02 0.02 0.02 0.03 0.06 0.06 0.11 0.08 0.06 0.15 0.18 0.18 0.17 0.23 0.25
0.00 0.00 0.00 0.00 0.00 0.01 0.01 0.04 0.09 0.21 0.19 0.21 0.11 0.23 0.29 0.34 0.32 0.32 0.18 0.11 0.05 0.03 0.02 0.02 0.02 0.04 0.03 0.04 0.04 0.09 0.04 0.19 0.16 0.15 0.19 0.32 0.12 0.08 0.22 0.10 0.07 0.02
0.00 0.00 0.00 0.00 0.00 0.00 0.00 0.00 0.00 0.02 0.02 0.04 0.12 0.18 0.32 0.32 0.27 0.41 0.18 0.06 0.04 0.03 0.01 0.01 0.03 0.01 0.00 0.05 0.09 0.12 0.11 0.13 0.15 0.12 0.13 0.06 0.12 0.04 0.03 0.02 0.13 0.17
0.00 0.00 0.00 0.00 0.00 0.00 0.00 0.00 0.00 0.00 0.00 0.01 0.02 0.02 0.02 0.06 0.20 0.21 0.28 0.28 0.14 0.06 0.02 0.03 0.02 0.01 0.03 0.07 0.09 0.15 0.19 0.16 0.28 0.22 0.13 0.15 0.10 0.06 0.03 0.18 0.28 0.21
0.00 0.00 0.00 0.00 0.00 0.00 0.00 0.00 0.00 0.00 0.00 0.00 0.00 0.00 0.01 0.01 0.01 0.01 0.12 0.16 0.09 0.11 0.03 0.01 0.03 0.06 0.11 0.10 0.15 0.09 0.22 0.33 0.22 0.16 0.07 0.09 0.10 0.14 0.09 0.07 0.09 0.03
0.00 0.00 0.00 0.00 0.00 0.00 0.00 0.00 0.00 0.00 0.00 0.00 0.00 0.00 0.00 0.00 0.00 0.01 0.03 0.01 0.03 0.04 0.02 0.03 0.02 0.05 0.13 0.17 0.25 0.18 0.37 0.30 0.21 0.43 0.16 0.17 0.06 0.07 0.07 0.03 0.13 0.22
0.00 0.00 0.00 0.00 0.00 0.00 0.00 0.00 0.00 0.00 0.00 0.00 0.00 0.00 0.00 0.00 0.00 0.00 0.00 0.00 0.01 0.04 0.03 0.03 0.05 0.04 0.10 0.17 0.13 0.20 0.21 0.33 0.16 0.16 0.29 0.41 0.07 0.06 0.06 0.24 0.30 0.21
0.00 0.00 0.00 0.00 0.00 0.00 0.00 0.00 0.00 0.00 0.00 0.00 0.00 0.00 0.00 0.00 0.00 0.00 0.00 0.00 0.00 0.00 0.00 0.00 0.01 0.09 0.08 0.06 0.15 0.18 0.22 0.14 0.24 0.22 0.27 0.35 0.45 0.53 0.38 0.34 0.31 0.23
0.00 0.00 0.00 0.00 0.00 0.00 0.00 0.00 0.00 0.00 0.00 0.00 0.00 0.00 0.00 0.00 0.00 0.00 0.00 0.00 0.00 0.00 0.00 0.00 0.00 0.00 0.00 0.00 0.00 0.02 0.23 0.18 0.40 0.15 0.12 0.21 0.27 0.14 0.07 0.15 0.09 0.23
0.00 0.00 0.00 0.00 0.00 0.00 0.00 0.00 0.00 0.00 0.00 0.00 0.00 0.00 0.00 0.00 0.00 0.00 0.00 0.00 0.00 0.00 0.00 0.00 0.00 0.00 0.00 0.00 0.00 0.00 0.00 0.00 0.04 0.03 0.01 0.06 0.12 0.14 0.25 0.19 0.25 0.21
0.00 0.00 0.00 0.00 0.00 0.00 0.00 0.00 0.00 0.00 0.00 0.00 0.00 0.00 0.00 0.00 0.00 0.00 0.00 0.00 0.00 0.00 0.00 0.00 0.00 0.00 0.00 0.00 0.00 0.00 0.00 0.00 0.00 0.00 0.01 0.01 0.01 0.02 0.06 0.09 0.17 0.12
0.00 0.00 0.00 0.00 0.00 0.00 0.00 0.00 0.00 0.00 0.00 0.00 0.00 0.00 0.00 0.00 0.00 0.00 0.00 0.00 0.00 0.00 0.00 0.00 0.00 0.00 0.00 0.00 0.00 0.00 0.00 0.00 0.00 0.00 0.00 0.00 0.00 0.00 0.00 0.01 0.02 0.02
0.00 0.00 0.00 0.00 0.00 0.00 0.00 0.00 0.00 0.00 0.00 0.00 0.00 0.00 0.00 0.00 0.00 0.00 0.00 0.00 0.00 0.00 0.00 0.00 0.00 0.00 0.00 0.00 0.00 0.00 0.00 0.00 0.00 0.00 0.00 0.00 0.00 0.00 0.00 0.00 0.00 0.00
0.00 0.00 0.00 0.00 0.00 0.00 0.00 0.00 0.00 0.00 0.00 0.00 0.00 0.00 0.00 0.00 0.00 0.00 0.00 0.00 0.00 0.00 0.00 0.00 0.00 0.00 0.00 0.00 0.00 0.00 0.00 0.00 0.00 0.00 0.00 0.00 0.00 0.00 0.00 0.00 0.00 0.00
0.00 0.00 0.00 0.00 0.00 0.00 0.00 0.00 0.00 0.00 0.00 0.00 0.00 0.00 0.00 0.00 0.00 0.00 0.00 0.00 0.00 0.00 0.00 0.00 0.00 0.00 0.00 0.00 0.00 0.00 0.00 0.00 0.00 0.00 0.00 0.00 0.00 0.00 0.00 0.00 0.00 0.00
0.00 0.00 0.00 0.00 0.00 0.00 0.00 0.00 0.00 0.00 0.00 0.00 0.00 0.00 0.00 0.00 0.00 0.00 0.00 0.00 0.00 0.00 0.00 0.00 0.00 0.00 0.00 0.00 0.00 0.00 0.00 0.00 0.00 0.00 0.00 0.00 0.00 0.00 0.00 0.00 0.00 0.00
0.00 0.00 0.00 0.00 0.00 0.00 0.00 0.00 0.00 0.00 0.00 0.00 0.00 0.00 0.00 0.00 0.00 0.00 0.00 0.00 0.00 0.00 0.00 0.00 0.00 0.00 0.00 0.00 0.00 0.00 0.00 0.00 0.00 0.00 0.00 0.00 0.00 0.00 0.00 0.00 0.00 0.00
0.00 0.00 0.00 0.00 0.00 0.00 0.00 0.00 0.00 0.00 0.00 0.00 0.00 0.00 0.00 0.00 0.00 0.00 0.00 0.00 0.00 0.00 0.00 0.00 0.00 0.00 0.00 0.00 0.00 0.00 0.00 0.00 0.00 0.00 0.00 0.00 0.00 0.00 0.00 0.00 0.00 0.00
0.00 0.00 0.00 0.00 0.00 0.00 0.00 0.00 0.00 0.00 0.00 0.00 0.00 0.00 0.00 0.00 0.00 0.00 0.01 0.00 0.00 0.00 0.00 0.00 0.00 0.00 0.00 0.00 0.00 0.00 0.00 0.00 0.00 0.00 0.00 0.00 0.00 0.00 0.00 0.00 0.00 0.00
MSLP
1016.31 1016.07 1016.43 1016.59 1016.47 1015.87 1015.75 1015.83 1015.83 1016.03 1016.19 1016.27 1016.35 1016.23 1016.07 1016.03 1016.07 1016.23 1016.19 1016.15 1016.23 1016.43 1016.67 1016.55 1016.35 1016.31 1016.07 1015.99 1015.95 1015.95 1016.03 1016.11 1016.23 1016.35 1016.55 1016.67 1016.83 1016.95 1017.15 1017.23 1017.39 1017.55
1016.03 1016.03 1016.35 1016.47 1016.19 1015.91 1015.79 1015.75 1015.91 1016.19 1016.39 1016.43 1016.51 1016.59 1016.43 1016.23 1016.03 1016.07 1016.31 1016.43 1016.39 1016.39 1016.35 1016.55 1016.71 1017.19 1017.43 1017.35 1016.47 1016.15 1016.07 1015.99 1016.11 1015.87 1016.19 1016.39 1016.51 1016.63 1016.75 1016.79 1016.95 1017.07
1015.83 1015.59 1015.83 1015.91 1015.87 1015.87 1015.87 1015.91 1016.07 1016.27 1016.31 1016.31 1016.35 1016.27 1016.23 1016.07 1016.19 1016.31 1016.39 1016.39 1016.43 1016.51 1016.35 1016.11 1015.99 1016.03 1016.35 1016.91 1017.03 1016.63 1016.23 1016.03 1015.99 1015.83 1015.99 1016.23 1016.35 1016.55 1016.43 1016.47 1016.55 1016.63
1015.71 1015.55 1015.39 1015.47 1015.55 1015.59 1015.79 1016.03 1016.23 1016.35 1016.35 1016.47 1016.47 1016.35 1016.39 1016.39 1015.91 1015.83 1016.15 1016.51 1016.67 1016.75 1016.75 1016.67 1016.59 1016.47 1016.39 1016.35 1016.27 1016.39 1016.43 1016.35 1016.19 1016.35 1016.87 1016.87 1016.59 1016.39 1016.39 1016.35 1016.35 1016.35
1015.47 1015.51 1015.39 1015.19 1015.23 1015.43 1015.67 1015.87 1016.03 1016.11 1016.23 1016.31 1016.31 1016.31 1016.39 1016.35 1016.11 1015.95 1015.95 1016.35 1016.59 1016.75 1016.67 1016.47 1016.27 1016.27 1016.15 1016.07 1016.03 1016.23 1016.23 1016.11 1016.35 1017.03 1017.39 1017.27 1016.95 1017.11 1016.91 1016.71 1016.83 1016.75
1015.31 1015.35 1015.35 1015.31 1015.31 1015.23 1015.43 1015.75 1015.75 1015.75 1015.79 1015.91 1015.95 1015.95 1016.07 1016.19 1015.95 1015.87 1015.95 1016.23 1016.43 1016.47 1016.39 1016.19 1016.07 1015.87 1015.71 1015.67 1015.79 1015.95 1015.95 1015.99 1015.99 1016.55 1017.19 1017.23 1016.95 1016.75 1016.83 1017.27 1017.59 1017.91
1015.35 1015.39 1015.47 1015.51 1015.63 1015.79 1015.63 1015.27 1015.31 1015.59 1015.83 1016.03 1016.23 1016.35 1016.15 1016.07 1015.87 1015.91 1015.95 1016.11 1016.23 1016.11 1015.99 1015.91 1015.83 1015.75 1015.59 1015.59 1015.67 1015.87 1015.87 1015.83 1015.83 1015.95 1016.31 1016.51 1016.59 1016.59 1016.55 1016.55 1016.63 1016.95
1015.47 1015.35 1015.31 1015.43 1015.67 1016.23 1016.39 1016.31 1016.07 1015.75 1015.55 1015.47 1015.83 1016.19 1016.35 1016.31 1015.99 1015.83 1016.07 1016.03 1015.99 1015.83 1015.71 1015.67 1015.63 1015.59 1015.55 1015.51 1015.71 1015.91 1016.03 1015.95 1016.03 1016.11 1016.31 1016.43 1016.47 1016.63 1016.63 1016.67 1016.71 1016.75
1015.63 1015.63 1015.63 1015.59 1015.51 1015.55 1015.71 1015.79 1016.19 1016.31 1016.35 1016.39 1016.15 1015.87 1015.91 1016.15 1016.03 1015.75 1015.67 1015.95 1016.23 1015.99 1015.75 1015.55 1015.43 1015.35 1015.27 1015.39 1015.55 1015.79 1015.99 1016.15 1016.07 1016.15 1016.31 1016.47 1016.55 1016.59 1016.47 1016.43 1016.63 1016.75
1015.95 1015.87 1015.87 1015.95 1015.95 1015.87 1015.87 1015.59 1015.47 1015.47 1015.59 1015.83 1016.11 1016.27 1016.79 1016.91 1016.95 1016.91 1016.27 1015.71 1015.55 1015.47 1015.43 1015.35 1015.11 1015.07 1015.11 1015.19 1015.63 1015.87 1015.95 1016.11 1016.15 1016.15 1016.19 1016.35 1016.59 1016.55 1016.35 1016.43 1016.59 1016.63
1016.23 1016.07 1016.11 1016.11 1016.11 1015.99 1016.03 1015.83 1015.67 1015.67 1015.59 1015.43 1015.31 1015.35 1015.35 1015.83 1016.43 1016.83 1016.79 1016.87 1016.51 1015.99 1015.75 1015.59 1015.51 1015.43 1015.59 1015.59 1015.59 1015.71 1015.87 1016.19 1016.39 1016.47 1016.19 1015.95 1015.95 1015.99 1016.07 1016.15 1016.27 1016.39
1016.35 1016.31 1016.27 1016.23 1016.19 1016.11 1016.03 1015.87 1015.71 1015.75 1015.71 1015.55 1015.47 1015.47 1015.35 1015.11 1015.07 1015.51 1016.03 1016.55 1016.23 1016.39 1016.03 1015.67 1015.55 1015.67 1015.71 1015.59 1015.59 1015.75 1016.11 1016.23 1016.27 1016.31 1015.99 1015.75 1015.67 1015.63 1015.71 1015.79 1015.87 1015.95
1016.39 1016.47 1016.43 1016.31 1016.23 1016.15 1015.95 1015.83 1015.79 1015.75 1015.75 1015.75 1015.63 1015.59 1015.51 1015.35 1015.23 1015.23 1015.19 1015.31 1015.39 1015.35 1015.39 1015.55 1015.51 1015.39 1015.39 1015.39 1015.39 1015.59 1015.83 1015.71 1015.63 1015.67 1015.67 1015.67 1015.47 1015.43 1015.39 1015.43 1015.47 1015.55
1016.43 1016.43 1016.39 1016.31 1016.27 1016.15 1016.07 1016.07 1016.03 1015.95 1015.91 1015.83 1015.75 1015.79 1015.67 1015.59 1015.55 1015.51 1015.39 1015.35 1015.27 1015.15 1014.99 1014.83 1014.99 1014.99 1015.07 1015.19 1015.23 1015.39 1015.51 1015.59 1015.59 1015.55 1015.51 1015.39 1015.35 1015.39 1015.35 1015.39 1015.39 1015.39
1016.35 1016.27 1016.23 1016.19 1016.23 1016.23 1016.23 1016.27 1016.23 1016.15 1016.11 1016.07 1016.03 1015.87 1015.71 1015.71 1015.71 1015.67 1015.71 1015.63 1015.43 1015.31 1015.15 1015.03 1015.03 1015.35 1015.43 1015.47 1015.55 1015.59 1015.63 1015.67 1015.59 1015.51 1015.47 1015.43 1015.35 1015.31 1015.27 1015.23 1015.19 1015.15
1016.31 1016.23 1016.23 1016.27 1016.31 1016.27 1016.39 1016.31 1016.31 1016.35 1016.31 1016.23 1016.07 1016.03 1015.99 1015.99 1015.99 1015.95 1015.87 1015.83 1015.75 1015.59 1015.47 1015.35 1015.35 1015.63 1015.83 1015.75 1015.71 1015.67 1015.55 1015.51 1015.43 1015.43 1015.35 1015.23 1015.15 1015.11 1015.07 1015.03 1014.95 1014.95
1016.47 1016.43 1016.35 1016.51 1016.43 1016.39 1016.39 1016.43 1016.47 1016.43 1016.35 1016.35 1016.35 1016.35 1016.35 1016.27 1016.31 1016.27 1016.15 1016.07 1016.03 1015.91 1015.79 1015.67 1015.47 1016.03 1016.23 1016.15 1016.15 1016.07 1015.79 1015.63 1015.55 1015.47 1015.31 1015.19 1015.11 1015.07 1015.07 1014.95 1014.87 1014.71
1016.59 1016.51 1016.55 1016.59 1016.59 1016.51 1016.47 1016.39 1016.39 1016.35 1016.55 1016.63 1016.67 1016.63 1016.55 1016.47 1016.39 1016.35 1016.31 1016.23 1016.15 1015.99 1015.91 1015.83 1015.75 1016.15 1016.03 1016.07 1016.11 1016.03 1015.95 1015.87 1015.71 1015.59 1015.47 1015.39 1015.23 1015.11 1014.99 1014.91 1014.83 1014.71
1016.63 1016.71 1016.71 1016.71 1016.71 1016.63 1016.63 1016.47 1016.39 1016.51 1016.67 1016.71 1016.75 1016.71 1016.67 1016.71 1016.67 1016.59 1016.51 1016.31 1016.31 1016.31 1016.19 1015.91 1015.83 1016.19 1015.99 1015.99 1015.99 1015.95 1015.91 1015.87 1015.79 1015.83 1015.79 1015.67 1015.55 1015.35 1015.15 1014.95 1014.79 1014.71
1016.71 1016.79 1016.87 1016.91 1016.87 1016.83 1016.83 1016.75 1016.83 1016.99 1017.03 1016.95 1016.95 1016.87 1016.87 1016.87 1016.83 1016.83 1016.71 1016.63 1016.63 1016.55 1016.47 1016.35 1016.07 1016.43 1016.47 1016.51 1016.51 1016.39 1016.27 1016.03 1015.79 1015.75 1015.75 1015.67 1015.59 1015.43 1015.23 1015.03 1014.87 1014.79
1016.91 1016.95 1017.03 1017.07 1017.03 1017.07 1017.03 1017.15 1017.31 1017.31 1017.27 1017.27 1017.27 1017.27 1017.27 1017.31 1017.15 1017.07 1016.99 1016.91 1016.83 1016.67 1016.51 1016.35 1016.35 1016.43 1016.43 1016.43 1016.47 1016.43 1016.31 1016.15 1015.83 1015.75 1015.67 1015.55 1015.35 1015.23 1015.03 1014.87 1014.67 1014.59
1017.15 1017.15 1017.19 1017.19 1017.11 1017.03 1017.19 1017.35 1017.47 1017.55 1017.67 1017.71 1017.75 1017.71 1017.71 1017.63 1017.47 1017.35 1017.27 1017.15 1017.03 1016.87 1016.71 1016.47 1016.47 1016.67 1016.63 1016.55 1016.55 1016.47 1016.39 1016.07 1015.91 1015.87 1015.71 1015.47 1015.19 1014.91 1014.71 1014.55 1014.39 1014.27
1017.39 1017.39 1017.47 1017.47 1017.27 1017.35 1017.51 1017.63 1017.67 1017.75 1017.87 1017.95 1018.03 1017.99 1017.95 1017.87 1017.75 1017.63 1017.43 1017.31 1017.15 1016.99 1016.87 1016.75 1016.67 1016.55 1016.67 1016.63 1016.63 1016.67 1016.47 1016.19 1016.03 1015.91 1015.71 1015.47 1015.19 1014.79 1014.51 1014.31 1014.11 1013.99
1017.55 1017.59 1017.71 1017.71 1017.55 1017.75 1017.87 1017.83 1017.75 1017.83 1017.95 1018.07 1018.19 1018.11 1018.03 1017.99 1017.83 1017.79 1017.67 1017.51 1017.31 1017.15 1016.99 1016.99 1016.79 1016.55 1016.75 1016.79 1016.75 1016.79 1016.71 1016.43 1016.19 1016.11 1015.95 1015.55 1015.03 1014.71 1014.63 1014.47 1014.27 1014.11
1017.67 1017.71 1017.91 1017.87 1017.83 1018.03 1018.11 1018.07 1018.11 1018.15 1018.23 1018.23 1018.23 1018.15 1018.07 1017.99 1017.99 1017.87 1017.79 1017.55 1017.35 1017.19 1016.99 1016.87 1016.75 1016.59 1016.75 1016.83 1016.91 1016.91 1016.79 1016.63 1016.35 1016.31 1016.15 1015.83 1015.79 1015.71 1015.47 1015.19 1014.91 1014.63
1017.71 1017.83 1017.99 1017.99 1018.03 1018.19 1018.19 1018.19 1018.27 1018.27 1018.35 1018.39 1018.35 1018.27 1018.27 1018.15 1018.03 1017.91 1017.71 1017.55 1017.23 1017.07 1016.83 1016.71 1016.67 1016.63 1016.95 1016.99 1017.07 1017.11 1017.15 1016.91 1016.55 1016.67 1016.71 1016.75 1016.59 1016.43 1016.15 1015.63 1015.35 1015.15
Thickness
5643 5645 5647 5646 5650 5656 5660 5663 5665 5665 5666 5668 5669 5671 5674 5676 5679 5680 5680 5681 5681 5682 5683 5684 5685 5686 5688 5692 5695 5697 5698 5700 5700 5700 5700 5699 5699 5699 5699 5699 5699 5698
5642 5645 5645 5645 5650 5655 5658 5661 5663 5663 5663 5664 5665 5667 5669 5673 5676 5677 5677 5677 5676 5678 5681 5684 5684 5683 5682 5683 5687 5692 5696 5698 5699 5701 5701 5699 5699 5699 5699 5699 5699 5699
5642 5646 5647 5648 5652 5655 5658 5660 5661 5662 5663 5664 5665 5667 5669 5671 5674 5676 5676 5674 5673 5674 5677 5682 5685 5686 5685 5683 5684 5688 5691 5693 5695 5697 5696 5696 5696 5696 5697 5698 5698 5699
5642 5645 5649 5651 5653 5655 5658 5659 5659 5660 5661 5662 5664 5667 5667 5669 5673 5677 5676 5674 5672 5671 5673 5677 5680 5682 5684 5685 5686 5687 5688 5689 5690 5688 5687 5688 5691 5692 5693 5694 5695 5697
5642 5645 5649 5652 5654 5656 5657 5657 5658 5660 5661 5662 5664 5666 5666 5667 5671 5675 5676 5675 5672 5671 5673 5676 5679 5680 5682 5685 5687 5687 5687 5688 5686 5682 5679 5681 5684 5684 5686 5685 5685 5685
5642 5644 5647 5650 5653 5656 5657 5658 5658 5659 5661 5661 5663 5665 5666 5668 5670 5673 5674 5674 5671 5671 5674 5677 5680 5682 5683 5685 5686 5686 5687 5686 5684 5681 5678 5678 5679 5681 5682 5682 5681 5680
5641 5643 5645 5647 5649 5651 5654 5658 5658 5658 5659 5659 5658 5658 5662 5666 5669 5671 5671 5671 5671 5672 5674 5677 5679 5681 5682 5684 5683 5683 5683 5683 5682 5681 5678 5677 5678 5678 5679 5682 5683 5682
5637 5641 5643 5645 5645 5645 5646 5649 5652 5654 5657 5659 5658 5657 5658 5661 5666 5669 5669 5668 5669 5671 5674 5676 5678 5679 5680 5681 5680 5679 5679 5678 5678 5678 5676 5675 5675 5674 5674 5676 5678 5679
5633 5636 5638 5641 5643 5643 5644 5645 5646 5649 5651 5653 5655 5656 5655 5656 5658 5663 5667 5668 5667 5669 5672 5674 5676 5678 5679 5678 5677 5676 5675 5675 5675 5674 5673 5672 5671 5671 5673 5674 5674 5675
5628 5631 5633 5635 5637 5639 5642 5645 5646 5648 5649 5650 5652 5653 5651 5649 5650 5653 5658 5663 5666 5669 5671 5673 5675 5677 5677 5676 5675 5673 5673 5672 5671 5671 5671 5671 5670 5670 5672 5672 5672 5673
5623 5626 5628 5630 5632 5634 5637 5641 5643 5646 5648 5651 5653 5654 5654 5653 5650 5648 5649 5652 5657 5663 5666 5668 5669 5670 5669 5671 5671 5670 5669 5668 5667 5668 5671 5672 5672 5671 5671 5671 5670 5671
5619 5622 5624 5626 5628 5631 5633 5637 5640 5642 5644 5647 5649 5651 5654 5655 5654 5653 5651 5649 5652 5656 5659 5662 5664 5664 5664 5666 5667 5666 5664 5664 5666 5667 5670 5673 5673 5672 5671 5671 5670 5671
5616 5618 5620 5623 5625 5627 5630 5632 5635 5636 5639 5642 5644 5647 5649 5651 5653 5653 5653 5653 5654 5656 5658 5660 5662 5662 5663 5664 5664 5663 5661 5663 5666 5668 5669 5670 5671 5672 5671 5670 5671 5671
5614 5614 5617 5619 5621 5623 5626 5627 5629 5631 5633 5635 5638 5641 5643 5646 5647 5648 5649 5651 5652 5655 5657 5659 5659 5660 5660 5661 5660 5659 5658 5660 5663 5665 5668 5669 5669 5669 5669 5669 5670 5670
5610 5611 5614 5616 5617 5619 5620 5622 5624 5625 5627 5629 5632 5635 5638 5640 5641 5641 5643 5644 5646 5650 5652 5653 5655 5654 5654 5654 5655 5655 5655 5656 5658 5661 5663 5665 5666 5667 5667 5668 5668 5668
5606 5608 5610 5611 5612 5615 5616 5617 5619 5620 5622 5624 5626 5629 5631 5633 5634 5635 5637 5638 5640 5642 5644 5646 5648 5647 5646 5647 5648 5649 5651 5652 5654 5656 5658 5660 5663 5664 5664 5665 5665 5666
5601 5603 5606 5606 5607 5609 5611 5613 5614 5615 5617 5618 5620 5621 5623 5625 5626 5628 5631 5632 5634 5636 5637 5639 5640 5640 5639 5640 5641 5643 5645 5647 5648 5651 5653 5655 5657 5659 5660 5660 5661 5662
5596 5598 5600 5601 5602 5604 5606 5608 5610 5611 5612 5612 5613 5615 5617 5619 5621 5622 5624 5626 5628 5629 5631 5633 5634 5634 5635 5636 5637 5637 5639 5641 5643 5644 5646 5648 5650 5652 5654 5655 5656 5657
5591 5593 5594 5595 5597 5599 5601 5603 5605 5605 5606 5606 5608 5610 5611 5613 5614 5616 5618 5619 5621 5622 5624 5626 5628 5628 5629 5631 5632 5632 5634 5635 5636 5638 5639 5641 5642 5645 5647 5649 5651 5651
5586 5587 5588 5589 5591 5593 5595 5597 5597 5598 5598 5600 5601 5603 5605 5606 5607 5609 5611 5612 5614 5615 5616 5619 5620 5620 5622 5624 5625 5626 5627 5628 5630 5632 5633 5635 5636 5637 5640 5643 5644 5646
5581 5582 5583 5584 5586 5587 5589 5589 5589 5590 5591 5593 5594 5595 5596 5598 5599 5602 5603 5604 5606 5608 5610 5612 5613 5614 5615 5617 5618 5619 5620 5622 5624 5625 5626 5629 5631 5633 5635 5637 5639 5641
5575 5577 5578 5579 5581 5583 5583 5583 5583 5583 5584 5584 5586 5587 5588 5590 5591 5593 5595 5597 5599 5601 5603 5605 5606 5607 5608 5610 5612 5613 5615 5617 5618 5618 5619 5622 5625 5629 5631 5633 5635 5636
5570 5571 5572 5573 5576 5577 5577 5577 5578 5579 5579 5579 5579 5581 5582 5583 5585 5587 5589 5591 5593 5595 5596 5597 5599 5600 5601 5604 5605 5606 5608 5610 5611 5611 5613 5616 5619 5623 5626 5628 5630 5631
5564 5565 5565 5567 5569 5569 5569 5571 5573 5573 5573 5574 5574 5576 5578 5579 5580 5582 5583 5585 5587 5588 5590 5590 5593 5595 5595 5597 5598 5598 5600 5602 5602 5603 5605 5609 5613 5616 5617 5619 5621 5622
5560 5560 5560 5561 5562 5562 5562 5564 5565 5566 5567 5568 5569 5570 5572 5574 5575 5576 5578 5580 5582 5584 5586 5586 5588 5590 5590 5591 5591 5591 5592 5593 5594 5595 5597 5600 5602 5603 5605 5607 5610 5611
5557 5556 5555 5556 5557 5557 5557 5558 5559 5560 5561 5562 5563 5565 5566 5568 5570 5571 5573 5575 5577 5580 5582 5583 5585 5585 5584 5584 5585 5584 5583 5584 5586 5587 5588 5589 5590 5591 5593 5597 5599 5601